Погода в Калинковичах

Беларусь     52°07′43″N   29°19′57″E
темп.,
°C
ветер,
м/с
пор.,
м/с
влажн.,
%
обл.,
%
осадки,
мм/ч
давл.,
гПа
погр.,
м
16 апреля, пт
пт1600:00+8вюв229312 1.9 101126
03:00+6юв349832 1.9 101179
06:00+6в229695 0.0 101142
09:00+9в3482100 0.0 1011342
12:00+8вюв3690100 2.6 1011436
15:00+11вюв5672100 3.6 1011896
18:00+9вюв5789100 0.5 1012514
21:00+7вюв2295100 0.6 101437
17 апреля, сб
сб1700:00+8ссв239496 0.1 101483
03:00+7в259384 0.5 1015134
06:00+6вюв259597 0.4 1016164
09:00+7вюв238539 0.4 1017322
12:00+11вюв346197 0.0 10181263
15:00+11вюв3364100 0.1 1018874
18:00+11ююз0160100 0.0 1018822
21:00+9зсз2481100 0.4 1018104
18 апреля, вс
вс1800:00+8зсз41084100 0.3 1016418
03:00+8зсз61190100 0.6 1014454
06:00+8ссз4896100 2.4 1013538
09:00+6св71280100 3.3 1015925
12:00+9св81166100 0.0 10161331
15:00+12св695074 0.1 10162015
18:00+10ссв576599 0.3 10171121
21:00+6с35865 0.4 101899
19 апреля, пн
пн1900:00+5с359219 0.0 1018103
03:00+4ссз379521 0.0 1017151
06:00+4ссз4895100 0.0 1017286
09:00+6ссз4787100 0.3 1016866
12:00+6сз4690100 0.1 1015778
15:00+9св226893 0.4 10141009
18:00+8юв227589 0.3 1013554
21:00+6юв339329 0.4 101357
20 апреля, вт
вт2000:00+4вюв22945 0.0 101222
03:00+3ссв23945 0.0 100938
06:00+3с359465 0.0 1007113
09:00+6ссз4893100 0.0 1004320
12:00+9ссз6987100 0.1 1001880
15:00+7ссз61193100 1.2 998774
18:00+7сз61192100 1.2 9971069
21:00+6зсз61291100 1.3 998993